Location: Brno
(49.2000°N, 16.6333°E)
Time: 01:45:09
(UTC+01:00)

ISS - Pass Details

Date: 01 February 2019
Orbit: 403 x 411 km, 51.6° (Epoch: 17 February)

Event Time Altitude Azimuth Distance (km) Brightness Sun altitude
Rises 18:55:49 0° 285° (WNW) 2,338 1.4 -20.7°
Reaches altitude 10° 18:57:56 10° 289° (WNW) 1,477 0.0 -21.1°
Enters shadow 19:00:40 52° 321° (NW) 518 -3.2 -21.5°
